Flag for Germany Weather past 2 weeks in Andernach, Rhineland-Palatinate, Germany

Now
32 °F

Light snow. Ice fog.


Feels Like: 24 °F
Forecast: 36 / 41 °F
Wind: 10 mph from Southwest

Location: Buechel

Current Time: Jan 26, 2015 at 12:19:36 PM

Latest Report: Jan 26, 2015 at 11:20 AM


Visibility: 0 mi

Pressure: 30.15 "Hg

Humidity: 93%

Dew point: 30 °F

Location of AndernachLocation

Historic Weather in Andernach — Graph

°F

Andernach temperature yesterday

Maximum temperature yesterday: 34 °F (at 12:20 PM)
Minimum temperature yesterday: 30 °F (at 5:20 AM)
Average temperature yesterday: 32 °F

Past Weeks' High & Low Weather Summary

 TemperatureHumidityPressure
High48 °F (Jan 13, 2:20 PM)100% (Jan 12, 3:20 AM)30.39 "Hg (Jan 12, 3:20 AM)
Low23 °F (Jan 23, 11:20 PM)62% (Jan 13, 1:20 PM)29.53 "Hg (Jan 15, 3:20 PM)
Average33 °F90%29.94 "Hg
* Reported Jan 11 10:20 AM — Jan 26 10:20 AM, Andernach, Weather by CustomWeather, © 2014

Note: Actual official high and low records may vary slightly from our data, if they occured in-between our weather recording intervals... More about our weather records

Advertising

Andernach weather history for previous 24 hours

 ConditionsComfort  
Time TempWeatherWind HumidityBarometerVisibility
10:20 AM
Jan 26
32 °FLight snow. Ice fog.10 mph93%30.15 "Hg1 mi
9:20 AM30 °FLight snow. Ice fog.9 mph100%30.18 "Hg1 mi
8:45 AM30 °FLight snow. Ice fog.9 mph100%30.18 "Hg1 mi
8:20 AM30 °FLight snow. Ice fog.9 mph100%30.18 "Hg1 mi
7:45 AM30 °FLight rain. Ice fog.9 mph100%30.18 "Hg1 mi
7:20 AM30 °FLight rain. Ice fog.9 mph100%30.21 "Hg1 mi
6:20 AM30 °FLight snow. Ice fog.8 mph100%30.21 "Hg1 mi
5:20 AM30 °FSnow. Ice fog.8 mph100%30.21 "Hg1 mi
4:20 AM30 °FLight snow. Ice fog.8 mph100%30.24 "Hg1 mi
3:20 AM30 °FChilly.7 mph100%30.27 "Hg1 mi
2:20 AM30 °FChilly.7 mph100%30.27 "Hg0 mi
1:20 AM30 °FChilly.6 mph100%30.27 "Hg0 mi
12:20 AM32 °FChilly.5 mph93%30.30 "Hg0 mi
11:20 PM
Jan 25
32 °FChilly.6 mph93%30.30 "Hg0 mi
10:20 PM32 °FChilly.6 mph93%30.33 "Hg0 mi
9:20 PM32 °FChilly.6 mph93%30.33 "Hg0 mi
8:20 PM32 °FChilly.6 mph93%30.33 "Hg0 mi
7:20 PM32 °FChilly.6 mph93%30.36 "Hg0 mi
6:20 PM32 °FChilly.6 mph93%30.36 "Hg1 mi
5:20 PM32 °FChilly.6 mph93%30.33 "Hg2 mi
4:20 PM32 °FChilly.7 mph93%30.33 "Hg2 mi
3:20 PM34 °FChilly.7 mph87%30.33 "Hg4 mi
2:20 PM34 °FChilly.6 mph87%30.33 "Hg5 mi
1:20 PM34 °FChilly.6 mph87%30.36 "Hg6 mi
12:20 PM34 °FChilly.6 mph87%30.36 "Hg6 mi
Weather by CustomWeather, © 2014

See weather overviewHow to use our weather pages